Regional Weather Roundup
Issued by NWS

Home | Current Version | Previous Version | Text Only | Print | Product List | Glossary Off
Versions: 1 2 3 4 5 6 7 8 9 10 11 12 13 14 15 16 17 18 19 20 21 22 23 24 25 26 27 28 29 30 31 32 33 34 35 36 37 38 39 40 41 42 43 44 45 46 47 48 49 50

000
ASUS43 KLMK 240402
RWRKY
KENTUCKY REGIONAL WEATHER ROUNDUP
NATIONAL WEATHER SERVICE LOUISVILLE KY
1100 PM EST THU FEB 23 2017

NOTE "FAIR" INDICATES FEW OR NO CLOUDS BELOW 12,000 FEET
WITH NO SIGNIFICANT WEATHER AND/OR OBSTRUCTIONS TO VISIBILITY.

KYZ001>023-026-027-061>063-070>075-240500-
WESTERN AND SOUTH CENTRAL KENTUCKY

CITY           SKY/WX    TMP DP  RH WIND       PRES   REMARKS
PADUCAH        PTCLDY    65  55  70 S16G24    29.63S
HENDERSON      MOCLDY    63  52  67 SE9       29.65S
OWENSBORO      PTCLDY    64  55  72 S15       29.68F
HOPKINSVILLE   PTCLDY    65  55  70 S8        29.70F
BOWLING GREEN  PTCLDY    62  53  72 S6        29.73F
GLASGOW        NOT AVBL
$$

KYZ024-025-028>034-038-045-046-053-240500-
NORTH CENTRAL KENTUCKY

CITY           SKY/WX    TMP DP  RH WIND       PRES   REMARKS
LOUISVILLE/SDF CLOUDY    64  55  72 SE8       29.71F
LOUISVILLE/LOU CLOUDY    65  55  70 SE5       29.72F
FORT KNOX      MOCLDY    62  54  73 SE7       29.71F
$$

KYZ035>037-039>044-047>052-055>060-089>105-240500-
NORTHEAST KENTUCKY

CITY           SKY/WX    TMP DP  RH WIND       PRES   REMARKS
LEXINGTON      PTCLDY    60  53  77 SE9       29.77F
COVINGTON      PTCLDY    62  56  80 SE12      29.74F
FRANKFORT      PTCLDY    61  53  75 S6        29.75S
$$

KYZ054-064>069-076>088-106>120-240500-
SOUTHEAST KENTUCKY

CITY           SKY/WX    TMP DP  RH WIND       PRES   REMARKS
JACKSON        CLEAR     61  52  72 S5        29.82F
LONDON         CLEAR     56  49  77 CALM      29.82S
SOMERSET       CLEAR     59  50  72 S3        29.81S
MIDDLESBORO    MOCLDY    53  51  95 CALM      29.85S
MONTICELLO     PTCLDY    53  50  89 NE7       29.82S
$$





USA.gov is the U.S. government's official web portal to all federal, state and local government web resources and services.